Погода в Лесном

Россия / Свердловская область     58°38′07″N   59°47′55″E
темп.,
°C
ветер,
м/с
пор.,
м/с
влажн.,
%
обл.,
%
осадки,
мм/ч
давл.,
гПа
погр.,
м
26 февраля, пт
пт2623:00−23з119458 0.0 102820
02:00−25з11940 0.0 102720
05:00−26зюз11940 0.0 102820
08:00−27зюз11940 0.0 102719
11:00−19ююз128315 0.0 1027233
14:00−14ю237543 0.0 1025558
17:00−14ююв258551 0.0 1024498
20:00−20ююв129867 0.0 102320
27 февраля, сб
сб2723:00−23ююв1210057 0.0 102320
02:00−25юв129925 0.0 102219
05:00−28вюв119914 0.0 102119
08:00−29всв1110037 0.0 102019
11:00−24в239363 0.0 1019299
14:00−20в3593100 0.0 1017501
17:00−19в4794100 0.1 1016574
20:00−21в3898100 0.2 1016494
28 февраля, вс
вс2823:00−22всв3698100 0.4 1016318
02:00−23св3798100 0.2 1015302
05:00−23ссв3798100 0.4 1015315
08:00−24ссв4897100 0.2 1014342
11:00−23ссв4794100 0.3 1014377
14:00−20ссв4793100 0.1 1014424
17:00−19ссв4793100 0.1 1014482
20:00−21ссв4897100 0.1 1015404
1 марта, пн
пн123:00−22с3898100 0.2 1017287
02:00−25с259999 0.0 1018112
05:00−26ссз229996 0.1 101938
08:00−26ссз129997 0.0 102019
11:00−20с139096 0.0 1019274
14:00−13ссз118298 0.0 1018396
17:00−12ю118692 0.0 1017228
20:00−17ююз12950 0.0 101720
2 марта, вт
вт223:00−18зюз12930 0.0 101720
02:00−19зюз22900 0.0 101552
05:00−19юз38900 0.0 1013145
08:00−16юз4138796 0.0 1010387
11:00−13юз5118298 0.0 1008455
14:00−10юз51084100 0.0 1006639
17:00−10юз4985100 0.0 1005642
20:00−12юз41187100 0.0 1004594